Location: Brunsbüttel
(52.3892°N, 10.6138°E)
Time: 16:37:34
(UTC+00:00)

CZ-4C R/B - Pass Details

Date: 19 May 2025
Orbit: 425 x 537 km, 98.0° (Epoch: 16 June)

Event Time Altitude Azimuth Distance (km) Brightness Sun altitude
Rises 21:13:19 0° 22° (NNE) 2,616 7.4 -13.0°
Reaches altitude 10° 21:15:38 10° 33° (NNE) 1,705 6.2 -13.2°
Maximum altitude 21:18:53 30° 96° (E) 898 4.1 -13.4°
Enters shadow 21:20:12 23° 134° (SE) 1,059 4.2 -13.5°
